Williams, AZ

12:49 PM MST on July 24, 2016 (GMT -0700)
Williams

Weather History for KCMR - May, 2013

Change the Weather History Date:

Sunday, May 5, 2013

  Actual Average (KFLG) Record (KFLG)
Temperature  
Mean Temperature 53 °F 49 °F  
Max Temperature 62 °F 64 °F 86 °F (1947)
Min Temperature 44 °F 33 °F 18 °F (1950)
Degree Days  
Heating Degree Days 12 16  
Month to date heating degree days 84  
Since 1 July heating degree days 6440  
Cooling Degree Days 0 0  
Month to date cooling degree days 0  
Year to date cooling degree days 0  
Growing Degree Days 3 (Base 50)    
Moisture  
Dew Point 19 °F    
Average Humidity 25    
Maximum Humidity 34    
Minimum Humidity 18    
Precipitation  
Precipitation 0.00 in 0.02 in 0.55 in (1992)
Month to date precipitation 0.12  
Year to date precipitation 7.60  
Snow  
Snow 0.00 in 0.00 in 4.60 in (1969)
Month to date snowfall 0.3  
Since 1 July snowfall 101.3  
Snow Depth -    
Sea Level Pressure  
Sea Level Pressure 30.09 in    
Wind  
Wind Speed 10 mph (SSE)    
Max Wind Speed 15 mph    
Max Gust Speed 23 mph    
Visibility 10 miles    
Events      
T = Trace of Precipitation, MM = Missing Value Source: NWS Daily Summary

Daily Weather History Graph

Daily Weather History Graph

Search for Another Location

Airport or City:

Trip Planner

Search our weather history database for the weather conditions in past years. The results will help you decide how hot, cold, wet, or windy it might be!

Date:

Astronomy

May. 05, 2013 Rise Set
Actual Time 5:33 AM MST 7:18 PM MST
Civil Twilight 5:05 AM MST 7:45 PM MST
Nautical Twilight 4:32 AM MST 8:19 PM MST
Astronomical Twilight 3:57 AM MST 8:54 PM MST
Moon 2:56 AM MST (5/5) 3:29 PM MST (5/5)
Length of Visible Light 14h 40m
Length of Day
13h 45m
Waning Crescent, 17% of the Moon is Illuminated
May 5
Waning Crescent
May 9
New
May 17
First Quarter
May 24
Full
May 31
Last Quarter

Hourly Weather History & Observations

Time (MST) Temp. Windchill Dew Point Humidity Pressure Visibility Wind Dir Wind Speed Gust Speed Precip Events Conditions
11:15 AM 59.0 °F - 19.4 °F 22% 30.13 in 10.0 mi SSE 12.7 mph 23.0 mph N/A   Partly Cloudy
11:35 AM 57.2 °F - 19.4 °F 23% 30.14 in 10.0 mi South 13.8 mph 19.6 mph N/A   Partly Cloudy
11:55 AM 57.2 °F - 19.4 °F 23% 30.14 in 10.0 mi South 12.7 mph - N/A   Clear
12:15 PM 59.0 °F - 19.4 °F 22% 30.12 in 10.0 mi SSE 13.8 mph 18.4 mph N/A   Partly Cloudy
12:35 PM 60.8 °F - 17.6 °F 19% 30.12 in 10.0 mi SE 15.0 mph 21.9 mph N/A   Scattered Clouds
1:15 PM 59.0 °F - 17.6 °F 20% 30.12 in 10.0 mi SSE 11.5 mph 19.6 mph N/A   Mostly Cloudy
1:35 PM 59.0 °F - 19.4 °F 22% 30.12 in 10.0 mi SSE 9.2 mph - N/A   Mostly Cloudy
1:55 PM 59.0 °F - 19.4 °F 22% 30.12 in 10.0 mi SSE 10.4 mph 17.3 mph N/A   Mostly Cloudy
2:15 PM 59.0 °F - 19.4 °F 22% 30.10 in 10.0 mi SSW 9.2 mph 17.3 mph N/A   Scattered Clouds
2:35 PM 62.6 °F - 19.4 °F 19% 30.09 in 10.0 mi SSE 15.0 mph 21.9 mph N/A   Scattered Clouds
3:15 PM 62.6 °F - 17.6 °F 18% 30.08 in 10.0 mi South 15.0 mph 23.0 mph N/A   Scattered Clouds
3:35 PM 60.8 °F - 19.4 °F 20% 30.08 in 10.0 mi SSW 8.1 mph - N/A   Scattered Clouds
3:55 PM 60.8 °F - 19.4 °F 20% 30.08 in 10.0 mi South 8.1 mph 20.7 mph N/A   Mostly Cloudy
4:15 PM 60.8 °F - 19.4 °F 20% 30.08 in 10.0 mi SSW 15.0 mph 19.6 mph N/A   Mostly Cloudy
4:35 PM 62.6 °F - 19.4 °F 19% 30.08 in 10.0 mi South 11.5 mph - N/A   Scattered Clouds
4:55 PM 59.0 °F - 21.2 °F 23% 30.07 in 10.0 mi SSW 15.0 mph 20.7 mph N/A   Partly Cloudy
5:15 PM 59.0 °F - 21.2 °F 23% 30.08 in 10.0 mi South 12.7 mph - N/A   Partly Cloudy
5:35 PM 57.2 °F - 21.2 °F 25% 30.07 in 10.0 mi South 12.7 mph 16.1 mph N/A   Scattered Clouds
5:55 PM 57.2 °F - 19.4 °F 23% 30.07 in 10.0 mi SSE 9.2 mph - N/A   Scattered Clouds
6:15 PM 57.2 °F - 19.4 °F 23% 30.07 in 10.0 mi SSE 11.5 mph - N/A   Mostly Cloudy
6:35 PM 57.2 °F - 19.4 °F 23% 30.07 in 10.0 mi SSE 9.2 mph - N/A   Partly Cloudy
6:55 PM 55.4 °F - 19.4 °F 25% 30.07 in 10.0 mi SSE 11.5 mph - N/A   Clear
7:15 PM 53.6 °F - 19.4 °F 26% 30.08 in 10.0 mi SSE 6.9 mph - N/A   Clear
7:35 PM 53.6 °F - 19.4 °F 26% 30.07 in 10.0 mi SE 9.2 mph - N/A   Clear
7:55 PM 50.0 °F - 19.4 °F 30% 30.08 in 10.0 mi SE 5.8 mph - N/A   Clear
8:15 PM 50.0 °F - 17.6 °F 28% 30.08 in 10.0 mi SSE 5.8 mph - N/A   Clear
8:35 PM 50.0 °F - 17.6 °F 28% 30.08 in 10.0 mi Calm Calm - N/A   Clear
8:55 PM 50.0 °F - 17.6 °F 28% 30.08 in 10.0 mi Calm Calm - N/A   Mostly Cloudy
9:15 PM 48.2 °F - 15.8 °F 27% 30.09 in 10.0 mi Calm Calm - N/A   Scattered Clouds
9:35 PM 46.4 °F - 15.8 °F 29% 30.08 in 10.0 mi Calm Calm - N/A   Scattered Clouds
9:55 PM 44.6 °F - 17.6 °F 34% 30.08 in 10.0 mi Calm Calm - N/A   Scattered Clouds
10:15 PM 48.2 °F - 15.8 °F 27% 30.08 in 10.0 mi Calm Calm - N/A   Partly Cloudy
10:35 PM 44.6 °F - 15.8 °F 31% 30.08 in 10.0 mi Calm Calm - N/A   Scattered Clouds
10:55 PM 46.4 °F - 17.6 °F 32% 30.08 in 10.0 mi Calm Calm - N/A   Scattered Clouds
11:15 PM 46.4 °F - 17.6 °F 32% 30.08 in 10.0 mi Calm Calm - N/A   Scattered Clouds
11:35 PM 46.4 °F 43.5 °F 17.6 °F 32% 30.08 in 10.0 mi ESE 5.8 mph - N/A   Mostly Cloudy
11:55 PM 50.0 °F - 19.4 °F 30% 30.09 in 10.0 mi SSE 6.9 mph - N/A   Mostly Cloudy